Home   Weather   Oberwart   Past weeks

Flag for Austria Past Weather in Oberwart, Burgenland, Austria — Yesterday and Last 2 Weeks

Now
79 °F

Warm.


Feels Like: 80 °F
Forecast: 64 / 94 °F
Wind: 2 mph from North

Location: Eisenstadt

Current Time: Jul 21, 2017 at 1:09:55 pm

Latest Report: Jul 21, 2017 at 12:00 pm


Visibility: N/A

Pressure: 29.96 "Hg

Humidity: 54%

Dew Point: 61 °F

Location of OberwartLocation

Past Weather in Oberwart — Graph

°F

Oberwart Temperature Yesterday

Maximum temperature yesterday: 90 °F (at 3:00 pm)
Minimum temperature yesterday: 61 °F (at 4:00 am)
Average temperature yesterday: 75 °F

High & Low Weather Summary for the Past Weeks

 TemperatureHumidityPressure
High90 °F (Jul 8, 2:00 pm)94% (Jul 10, 1:00 am)30.22 "Hg (Jul 10, 1:00 am)
Low53 °F (Jul 14, 6:00 am)27% (Jul 8, 2:00 pm)29.71 "Hg (Jul 10, 6:00 pm)
Average72 °F60%29.98 "Hg
* Reported Jul 6 11:00 am — Jul 21 11:00 am, Oberwart. Weather by CustomWeather, © 2017

Note: Actual official high and low records may vary slightly from our data, if they occured in-between our weather recording intervals... More about our weather records

Advertising

Oberwart Weather History for the Previous 24 Hours

Scroll right to see more
 ConditionsComfort  
Time TempWeatherWind HumidityBarometerVisibility
11:00 am
Fri, Jul 21
78 °FScattered clouds.3 mph55%29.96 "Hg12 mi
10:00 am75 °FMild.3 mph61%29.97 "HgN/A
9:00 am73 °FMild.5 mph66%29.96 "HgN/A
8:00 am70 °FScattered clouds.3 mph72%29.95 "Hg12 mi
7:00 am67 °FMild.2 mph78%29.95 "HgN/A
6:00 am65 °FPartly sunny.2 mph85%29.93 "Hg12 mi
5:00 am66 °FPassing clouds.2 mph80%29.91 "Hg12 mi
4:00 am67 °FOvercast.7 mph80%29.89 "Hg12 mi
3:00 am67 °FMild.8 mph84%29.89 "HgN/A
2:00 am66 °FRain. Overcast.10 mph88%29.90 "Hg6 mi
1:00 am67 °FFog.9 mph86%29.92 "HgN/A
12:00 am73 °FMild.10 mph63%29.89 "HgN/A
11:00 pm
Thu, Jul 20
76 °FOvercast.9 mph55%29.83 "Hg12 mi
10:00 pm79 °FWarm.8 mph51%29.81 "HgN/A
9:00 pm76 °FMild.3 mph62%29.77 "HgN/A
6:00 pm88 °FPleasantly warm.2 mph39%29.77 "HgN/A
5:00 pm88 °FPartly sunny.1 mph36%29.77 "Hg16 mi
4:00 pm89 °FHot.1 mph37%29.78 "HgN/A
3:00 pm90 °FHot.2 mph37%29.80 "HgN/A
2:00 pm89 °FHot.2 mph37%29.80 "HgN/A
1:00 pm88 °FPleasantly warm.1 mph38%29.82 "HgN/A
Weather by CustomWeather, © 2017

See weather overviewHow to use our weather pages